Tracking 29487 objects as of 10-Sep-2024
HD Live streaming from Space Station
objects crossing your sky now

ABS-1A (KOREASAT 2)

Track ABS-1A (KOREASAT 2) now!
ABS-1A (KOREASAT 2) is classified as:


NORAD ID: 23768
Int'l Code: 1996-003A
Perigee: 35,903.4 km
Apogee: 35,949.2 km
Inclination: 11.7 °
Period: 1,442.9 minutes
Semi major axis: 42297 km
RCS: 25.1188 m2 (large)
Launch date: January 14, 1996
Source: South Korea (SKOR)
Launch site: AIR FORCE EASTERN TEST RANGE (AFETR)

Korean peninsula; 15 Ku-band transponders.
Your satellite tracking list
Your tracking list is empty




NASA's NSSDC Master Catalog

Two Line Element Set (TLE):
1 23768U 96003A   24253.58237439 -.00000032  00000-0  00000-0 0  9997
2 23768  11.7218  30.1368 0005412 119.3798  58.1590  0.99800674104735
Source of the keplerian elements: AFSPC